TimeCDT,TemperatureF,Dew PointF,Humidity,Sea Level PressureIn,VisibilityMPH,Wind Direction,Wind SpeedMPH,Gust SpeedMPH,PrecipitationIn,Events,Conditions,WindDirDegrees,DateUTC
12:44 AM,51.8,48.2,88,29.56,10.0,SW,11.5,-,0.01,,Overcast,230,2013-04-07 05:44:00
12:52 AM,53.1,48.9,86,29.56,10.0,WSW,11.5,-,0.01,,Overcast,240,2013-04-07 05:52:00
1:52 AM,53.1,46.9,80,29.59,10.0,West,17.3,31.1,N/A,,Overcast,280,2013-04-07 06:52:00
2:52 AM,48.9,41.0,74,29.61,10.0,WNW,27.6,39.1,N/A,,Overcast,300,2013-04-07 07:52:00
3:52 AM,44.1,36.0,73,29.67,10.0,WNW,21.9,33.4,N/A,,Mostly Cloudy,300,2013-04-07 08:52:00
4:52 AM,43.0,35.1,74,29.71,10.0,WNW,21.9,28.8,N/A,,Mostly Cloudy,300,2013-04-07 09:52:00
5:52 AM,42.1,34.0,73,29.75,10.0,WNW,15.0,20.7,N/A,,Overcast,300,2013-04-07 10:52:00
6:52 AM,41.0,32.0,70,29.81,10.0,WNW,13.8,21.9,N/A,,Mostly Cloudy,290,2013-04-07 11:52:00
7:52 AM,39.9,32.0,73,29.87,10.0,WNW,11.5,-,N/A,,Mostly Cloudy,300,2013-04-07 12:52:00
8:52 AM,39.9,30.9,70,29.89,10.0,NW,11.5,-,N/A,,Overcast,320,2013-04-07 13:52:00
9:52 AM,39.9,30.9,70,29.91,10.0,WNW,13.8,23.0,N/A,,Overcast,290,2013-04-07 14:52:00
10:52 AM,42.8,30.2,61,29.93,10.0,WNW,15.0,-,N/A,,Overcast,300,2013-04-07 15:52:00
11:52 AM,44.1,30.9,60,29.96,10.0,WNW,11.5,-,N/A,,Mostly Cloudy,300,2013-04-07 16:52:00
12:52 PM,46.9,32.0,56,29.96,10.0,NW,11.5,-,N/A,,Scattered Clouds,310,2013-04-07 17:52:00
1:52 PM,48.0,33.1,56,29.96,10.0,West,8.1,-,N/A,,Partly Cloudy,280,2013-04-07 18:52:00
2:52 PM,51.1,33.1,50,29.96,10.0,NNW,6.9,-,N/A,,Scattered Clouds,330,2013-04-07 19:52:00
3:47 PM,46.4,33.8,62,29.95,10.0,ENE,12.7,-,N/A,,Scattered Clouds,60,2013-04-07 20:47:00
3:52 PM,46.0,34.0,63,29.97,10.0,ENE,12.7,-,N/A,,Scattered Clouds,70,2013-04-07 20:52:00
4:52 PM,45.0,32.0,60,29.98,10.0,East,10.4,-,N/A,,Mostly Cloudy,90,2013-04-07 21:52:00
5:52 PM,42.1,32.0,67,30.00,10.0,East,11.5,-,N/A,,Mostly Cloudy,100,2013-04-07 22:52:00
6:52 PM,39.9,32.0,73,30.00,10.0,ESE,8.1,-,N/A,,Scattered Clouds,110,2013-04-07 23:52:00
7:52 PM,37.9,32.0,79,30.00,10.0,SE,9.2,-,N/A,,Partly Cloudy,140,2013-04-08 00:52:00
8:52 PM,37.9,32.0,79,30.02,10.0,SE,6.9,-,N/A,,Clear,130,2013-04-08 01:52:00
9:52 PM,37.9,32.0,79,30.02,10.0,SSE,8.1,-,N/A,,Clear,150,2013-04-08 02:52:00
10:52 PM,36.0,32.0,86,30.00,10.0,SE,6.9,-,N/A,,Clear,130,2013-04-08 03:52:00
11:52 PM,35.1,32.0,89,29.97,10.0,ESE,5.8,-,N/A,,Clear,120,2013-04-08 04:52:00